Regional Weather Roundup
Issued by NWS

Home | Current Version | Previous Version | Text Only | Print | Product List | Glossary On
Versions: 1 2 3 4 5 6 7 8 9 10 11 12 13 14 15 16 17 18 19 20 21 22 23 24 25 26 27
000
ASUS45 KBOU 291407
RWRCO

WEATHER ROUNDUP FOR COLORADO
NATIONAL WEATHER SERVICE DENVER/BOULDER CO
800 AM MDT SUN MAY 29 2016

NOTE: "FAIR" INDICATES FEW OR NO CLOUDS BELOW 12000 FEET WITH NO
SIGNIFICANT WEATHER AND/OR OBSTRUCTIONS TO VISIBILITY.

COZ001>005-013-030-031-291500-
...NORTHWEST COLORADO...

CITY           SKY/WX    TMP DP  RH WIND       PRES   REMARKS
CRAIG          FAIR      46  39  76 CALM      30.23R
HAYDEN         FAIR      46  34  61 E8        30.24S
MEEKER         FAIR      47  34  60 CALM      30.23S
MOUNT WERNER   NOT AVBL
STEAMBOAT SPGS FAIR      42  35  74 CALM      30.26S
WALDEN         NOT AVBL
$$

COZ006>008-011-291500-
...WEST CENTRAL VALLEYS...

CITY           SKY/WX    TMP DP  RH WIND       PRES   REMARKS
GRAND JUNCTION FAIR      60  36  40 SE10      30.16R
MONTROSE       FAIR      53  34  48 S6        30.23R
EAGLE          SUNNY     43  36  75 CALM      30.32S
RIFLE          FAIR      50  36  58 CALM      30.22S
DELTA          FAIR      56  35  45 CALM      30.20S
NUCLA          FAIR      54  32  43 CALM      30.23S
$$

COZ017>023-064>068-291500-
...SOUTHWEST COLORADO...

CITY           SKY/WX    TMP DP  RH WIND       PRES   REMARKS
DURANGO        FAIR      53  34  48 CALM      30.22R
CORTEZ         FAIR      53  33  46 CALM      30.17S
PAGOSA SPRINGS FAIR      54  33  44 CALM      30.30R
TELLURIDE      FAIR      49  30  48 CALM      30.36S
WOLF CREEK PAS PTSUNNY   36  25  64 CALM      30.54R
$$

COZ009-010-012-014-032>034-037-058>063-291500-
...CENTRAL COLORADO...

CITY           SKY/WX    TMP DP  RH WIND       PRES   REMARKS
ASPEN          FAIR      45  32  60 N3        30.30S
BUENA VISTA    FAIR      46  29  51 N3        30.35S
COPPER MTN     NOT AVBL
BERTHOUD PASS  FAIR      32  23  69 SW10G17   30.51R WCI  24
COTTONWOOD PAS FAIR      46  30  53 CALM      30.41S
GUNNISON       FAIR      41  30  65 CALM      30.37S
KREMMLING      FAIR      36  32  87 CALM      30.34S
LEADVILLE      FAIR      39  26  59 CALM      30.40R
MONARCH PASS   FAIR      34  23  64 S13       30.60R WCI  25
SALIDA         FAIR      45  32  60 CALM      30.41S
SUNLIGHT       FAIR      41  30  65 CALM      30.46R
WILKERSON PASS FAIR      37  28  70 CALM      30.49S
$$

COZ069>075-291500-
...SAN LUIS VALLEY/SANGRE DE CRISTO MOUNTAINS...

CITY           SKY/WX    TMP DP  RH WIND       PRES   REMARKS
ALAMOSA        PTSUNNY   45  39  79 W8        30.33R
LA VETA PASS   PTSUNNY   46  28  49 CALM      30.44R
SAGUACHE       CLOUDY    50  32  50 NW5       30.34R
$$

COZ035-036-038>040-291500-
...NORTHERN COLORADO FRONT RANGE...

CITY           SKY/WX    TMP DP  RH WIND       PRES   REMARKS
DENVER INTL AP FAIR      57  41  55 SW16      30.17S
DMNS CITY PARK   N/A     58  37  45 SW9       30.18S
AURORA         MOSUNNY   58  40  52 SW9       30.19S
FRONT RANGE AP MOSUNNY   57  43  58 S7        30.19R
ERIE MUNI ARPT FAIR      57  43  58 CALM      30.17S
BOULDER MUN AP FAIR      59  36  41 CALM      30.17R
CENTENNIAL     FAIR      58  39  49 S9        30.20S
BROOMFIELD     MOSUNNY   57  39  51 CALM      30.19R
FORT COLLINS   FAIR      54  45  71 CALM      30.18S
LONGMONT       FAIR      60  40  47 CALM      30.18S
$$

COZ041-046-047-076>085-087-088-291500-
...PIKES PEAK/PALMER DIVIDE AND SOUTHERN FOOTHILLS...

CITY           SKY/WX    TMP DP  RH WIND       PRES   REMARKS
COLO. SPRINGS  PTSUNNY   57  41  55 NE3       30.25R
A. F. ACADEMY  FAIR      52  41  66 NW2       30.25R
SCHRIEVER AFB  NOT AVBL
ELLICOTT       FAIR     N/A N/A N/A NW6       30.23R
FALCON         FAIR      55  41  58 SW8       30.28R
FORT CARSON    FAIR      57  42  58 CALM      30.22S
LIMON          FAIR      56  47  71 CALM      30.20S
MONUMENT HILL  FAIR      54  43  66 SW9       30.27S
TRINIDAD       FAIR      53  40  61 W7        30.23R
$$

COZ042>045-048>051-090-091-291500-
...NORTHEAST COLORADO...

CITY           SKY/WX    TMP DP  RH WIND       PRES   REMARKS
GREELEY ARPT   FAIR      54  46  76 CALM      30.17S
AKRON          FAIR      60  44  55 S3        30.17R
BURLINGTON     FAIR      64  49  57 S14       30.16R
WRAY           FAIR      61  50  67 CALM      30.14R
STERLING       FAIR      55  52  88 SW6       30.13S
HOLYOKE        NOT AVBL
FORT MORGAN    FAIR      56  46  70 CALM      30.17R
$$

COZ086-089-092>099-291500-
...SOUTHEAST COLORADO...

CITY           SKY/WX    TMP DP  RH WIND       PRES   REMARKS
PUEBLO         FAIR      58  46  64 NW7       30.17F
LA JUNTA       FAIR      59  51  75 SW6       30.16R
LAMAR          FAIR      69  49  48 S7        30.13S
SPRINGFIELD      N/A     66  51  58 SW9       30.18R
$$




USA.gov is the U.S. government's official web portal to all federal, state and local government web resources and services.